Simultaneous Nadir Overpasses (SNOs) Predictions

Prediction of SNOs between AQUA and NPP Satellite Orbit:

Table of predicted SNOs for the next 14.0 days since TLE Epoch: 5/18/2024
Index Date (AQUA) Time (AQUA) Lat,Lon (AQUA) SZA (AQUA ) Date (NPP) Time (NPP) Lat,Lon (NPP) SZA (NPP ) Distance(km) Time Diff (sec)
1 05/19/2024 11:30:25 -81.22, 110.05 111.76 05/19/2024 11:30:12 -81.22, 109.91 111.73 2.45 13
2 05/19/2024 12:19:46 81.24, -81.89 68.19 05/19/2024 12:20:54 81.24, -81.81 68.13 1.35 68
3 05/21/2024 23:34:18 81.21, 108.98 67.77 05/21/2024 23:33:19 81.22, 109.00 67.80 0.65 59
4 05/22/2024 00:23:39 -81.24, -82.90 112.31 05/22/2024 00:24:02 -81.24, -82.79 112.34 1.91 23
5 05/24/2024 12:27:29 81.24, -83.84 67.24 05/24/2024 12:27:09 81.23, -83.83 67.25 0.39 20
6 05/24/2024 13:16:51 -81.24, 83.91 112.79 05/24/2024 13:17:53 -81.25, 84.02 112.84 1.79 62
7 05/27/2024 00:31:17 -81.23, -84.83 113.18 05/27/2024 00:30:17 -81.23, -84.99 113.12 2.75 60
8 05/27/2024 01:20:38 81.25, 83.11 66.78 05/27/2024 01:20:59 81.25, 83.24 66.75 2.14 21
9 05/29/2024 13:24:23 -81.23, 81.92 113.56 05/29/2024 13:24:06 -81.23, 81.98 113.56 1.00 17
10 05/29/2024 14:13:44 81.24,-110.17 66.40 05/29/2024 14:14:49 81.25,-110.19 66.36 0.42 65
11 06/01/2024 01:28:05 81.23, 81.03 66.10 06/01/2024 01:27:12 81.23, 80.95 66.15 1.44 53



Historial Predications of SNOs between AQUA and NPP
